• In Hungary
  • List of Countries
  • For 7 days
  • Water Temperature
  • Satellite Maps
  • Weather Map
  • News
  • Weather Widgets
  • user-avatar
    Login

    Hourly Weather Neuquén

    Today, 19 October, Friday

    Time Temperature Precipitation Wind Pressure Humidity
    00:00 +8°C° 0 mm 10 mps 743 mmHg 66%
    01:00 +7°C° 0 mm 10 mps 743 mmHg 67%
    02:00 +7°C° 0.1 mm 10 mps 743 mmHg 69%
    03:00 +7°C° 0.1 mm 10 mps 743 mmHg 70%
    04:00 +6°C° 0.1 mm 9 mps 743 mmHg 71%
    05:00 +6°C° 0.2 mm 9 mps 743 mmHg 72%
    06:00 +6°C° 0.2 mm 9 mps 743 mmHg 72%
    07:00 +6°C° 0.2 mm 9 mps 743 mmHg 72%
    08:00 +6°C° 0.4 mm 8 mps 743 mmHg 72%
    09:00 +6°C° 0.4 mm 8 mps 743 mmHg 71%
    10:00 +8°C° 0.4 mm 7 mps 743 mmHg 70%
    11:00 +8°C° 0.4 mm 7 mps 743 mmHg 72%
    12:00 +8°C° 0.4 mm 7 mps 742 mmHg 73%
    13:00 +8°C° 0.4 mm 7 mps 742 mmHg 74%
    14:00 +8°C° 0.3 mm 7 mps 741 mmHg 76%
    15:00 +8°C° 0.3 mm 7 mps 741 mmHg 77%
    16:00 +8°C° 0.3 mm 7 mps 741 mmHg 78%
    17:00 +9°C° 0.1 mm 7 mps 741 mmHg 80%
    18:00 +9°C° 0.1 mm 7 mps 741 mmHg 81%
    19:00 +9°C° 0.1 mm 6 mps 741 mmHg 83%
    20:00 +9°C° 0.1 mm 6 mps 741 mmHg 84%
    21:00 +9°C° 0.1 mm 6 mps 741 mmHg 85%
    22:00 +9°C° 0.1 mm 6 mps 740 mmHg 85%
    23:00 +9°C° 0.1 mm 5 mps 740 mmHg 86%

    Tomorrow, 20 October, Saturday

    Time Temperature Precipitation Wind Pressure Humidity
    00:00 +9°C° 0.1 mm 5 mps 739 mmHg 87%
    01:00 +9°C° 0.1 mm 5 mps 739 mmHg 88%
    02:00 +10°C° 0.1 mm 4 mps 739 mmHg 88%
    03:00 +10°C° 0.1 mm 4 mps 738 mmHg 89%
    04:00 +10°C° 0.1 mm 4 mps 738 mmHg 89%
    05:00 +10°C° 0.1 mm 4 mps 738 mmHg 89%
    06:00 +10°C° 0.1 mm 4 mps 738 mmHg 88%
    07:00 +10°C° 0.1 mm 3 mps 737 mmHg 88%
    08:00 +11°C° 0.1 mm 3 mps 737 mmHg 86%
    09:00 +12°C° 0.1 mm 3 mps 737 mmHg 85%
    10:00 +12°C° 0.1 mm 3 mps 737 mmHg 84%
    11:00 +13°C° 0 mm 3 mps 736 mmHg 80%
    12:00 +14°C° 0 mm 3 mps 736 mmHg 76%
    13:00 +17°C° 0 mm 3 mps 735 mmHg 72%
    14:00 +17°C° 0 mm 3 mps 735 mmHg 72%
    15:00 +17°C° 0 mm 3 mps 734 mmHg 71%
    16:00 +17°C° 0 mm 3 mps 733 mmHg 71%
    17:00 +17°C° 0 mm 3 mps 734 mmHg 74%
    18:00 +16°C° 0 mm 3 mps 734 mmHg 77%
    19:00 +14°C° 0 mm 4 mps 734 mmHg 80%
    20:00 +14°C° 0.1 mm 3 mps 734 mmHg 82%
    21:00 +14°C° 0.1 mm 3 mps 734 mmHg 83%
    22:00 +14°C° 0.1 mm 3 mps 734 mmHg 85%
    23:00 +13°C° 0.3 mm 3 mps 734 mmHg 85%

    Day after tomorrow, 21 October, Sunday

    Time Temperature Precipitation Wind Pressure Humidity
    00:00 +13°C° 0.3 mm 3 mps 734 mmHg 84%
    01:00 +13°C° 0.3 mm 2 mps 733 mmHg 84%
    02:00 +12°C° 0 mm 3 mps 733 mmHg 74%
    03:00 +12°C° 0 mm 5 mps 734 mmHg 64%
    04:00 +10°C° 0 mm 6 mps 734 mmHg 54%
    05:00 +11°C° 0 mm 6 mps 734 mmHg 46%
    06:00 +12°C° 0 mm 7 mps 734 mmHg 38%
    07:00 +13°C° 0 mm 8 mps 735 mmHg 31%
    08:00 +15°C° 0 mm 7 mps 735 mmHg 28%
    09:00 +16°C° 0 mm 7 mps 735 mmHg 25%
    10:00 +18°C° 0 mm 7 mps 735 mmHg 22%
    11:00 +18°C° 0 mm 7 mps 734 mmHg 21%
    12:00 +20°C° 0 mm 7 mps 734 mmHg 21%
    13:00 +20°C° 0 mm 8 mps 733 mmHg 20%
    14:00 +21°C° 0 mm 7 mps 733 mmHg 19%
    15:00 +21°C° 0 mm 6 mps 733 mmHg 19%
    16:00 +21°C° 0 mm 6 mps 732 mmHg 19%
    17:00 +20°C° 0 mm 5 mps 733 mmHg 21%
    18:00 +19°C° 0 mm 5 mps 733 mmHg 24%
    19:00 +17°C° 0 mm 5 mps 734 mmHg 27%
    20:00 +16°C° 0 mm 5 mps 734 mmHg 29%
    21:00 +15°C° 0 mm 5 mps 735 mmHg 32%
    22:00 +14°C° 0 mm 4 mps 735 mmHg 34%
    23:00 +13°C° 0 mm 4 mps 735 mmHg 36%

    22 October, Monday

    Time Temperature Precipitation Wind Pressure Humidity
    00:00 +13°C° 0 mm 4 mps 735 mmHg 38%
    01:00 +12°C° 0 mm 4 mps 735 mmHg 40%
    02:00 +12°C° 0 mm 4 mps 736 mmHg 41%
    03:00 +11°C° 0 mm 4 mps 736 mmHg 43%
    04:00 +11°C° 0 mm 3 mps 736 mmHg 44%
    05:00 +12°C° 0 mm 4 mps 737 mmHg 43%
    06:00 +12°C° 0 mm 5 mps 737 mmHg 42%
    07:00 +13°C° 0 mm 6 mps 738 mmHg 42%
    08:00 +14°C° 0 mm 6 mps 738 mmHg 40%
    09:00 +15°C° 0 mm 6 mps 738 mmHg 37%
    10:00 +17°C° 0 mm 6 mps 738 mmHg 35%
    11:00 +17°C° 0 mm 6 mps 738 mmHg 32%
    12:00 +19°C° 0 mm 5 mps 737 mmHg 30%
    13:00 +20°C° 0 mm 5 mps 737 mmHg 27%
    14:00 +20°C° 0 mm 5 mps 737 mmHg 27%
    15:00 +20°C° 0 mm 5 mps 736 mmHg 26%
    16:00 +21°C° 0 mm 5 mps 736 mmHg 26%
    17:00 +20°C° 0 mm 6 mps 736 mmHg 28%
    18:00 +19°C° 0 mm 6 mps 737 mmHg 30%
    19:00 +17°C° 0 mm 7 mps 737 mmHg 32%
    20:00 +16°C° 0 mm 8 mps 737 mmHg 34%
    21:00 +16°C° 0 mm 8 mps 737 mmHg 35%
    22:00 +15°C° 0 mm 9 mps 738 mmHg 37%
    23:00 +13°C° 0 mm 8 mps 738 mmHg 39%

    23 October, Tuesday

    Time Temperature Precipitation Wind Pressure Humidity
    00:00 +13°C° 0 mm 8 mps 738 mmHg 41%
    01:00 +12°C° 0 mm 7 mps 737 mmHg 43%
    02:00 +12°C° 0 mm 7 mps 737 mmHg 45%
    03:00 +11°C° 0 mm 7 mps 737 mmHg 47%
    04:00 +11°C° 0 mm 7 mps 737 mmHg 50%
    05:00 +12°C° 0 mm 8 mps 738 mmHg 51%
    06:00 +12°C° 0 mm 8 mps 738 mmHg 52%
    07:00 +13°C° 0 mm 9 mps 738 mmHg 53%
    08:00 +15°C° 0 mm 9 mps 738 mmHg 51%
    09:00 +17°C° 0 mm 9 mps 738 mmHg 49%
    10:00 +18°C° 0 mm 10 mps 738 mmHg 47%
    11:00 +18°C° 0 mm 10 mps 737 mmHg 45%
    12:00 +19°C° 0 mm 10 mps 736 mmHg 43%
    13:00 +19°C° 0 mm 10 mps 736 mmHg 41%
    14:00 +19°C° 0 mm 9 mps 736 mmHg 40%
    15:00 +19°C° 0 mm 9 mps 735 mmHg 38%
    16:00 +21°C° 0 mm 9 mps 735 mmHg 36%
    17:00 +20°C° 0 mm 8 mps 735 mmHg 36%
    18:00 +18°C° 0 mm 7 mps 736 mmHg 36%
    19:00 +19°C° 0 mm 6 mps 736 mmHg 37%
    20:00 +17°C° 0.1 mm 7 mps 736 mmHg 37%
    21:00 +17°C° 0.1 mm 8 mps 736 mmHg 38%
    22:00 +16°C° 0.1 mm 8 mps 736 mmHg 39%
    23:00 +15°C° 0 mm 8 mps 736 mmHg 42%

    24 October, Wednesday

    Time Temperature Precipitation Wind Pressure Humidity
    00:00 +15°C° 0 mm 8 mps 735 mmHg 45%
    01:00 +13°C° 0 mm 8 mps 735 mmHg 48%
    02:00 +13°C° 0 mm 8 mps 735 mmHg 52%
    03:00 +12°C° 0 mm 8 mps 735 mmHg 56%
    04:00 +12°C° 0 mm 7 mps 735 mmHg 59%
    05:00 +12°C° 0.1 mm 7 mps 735 mmHg 61%
    06:00 +12°C° 0.1 mm 7 mps 735 mmHg 62%
    07:00 +14°C° 0.1 mm 7 mps 735 mmHg 63%
    08:00 +15°C° 0.1 mm 7 mps 735 mmHg 60%
    09:00 +16°C° 0.1 mm 7 mps 735 mmHg 58%
    10:00 +17°C° 0.1 mm 6 mps 735 mmHg 55%
    11:00 +17°C° 0 mm 6 mps 735 mmHg 56%
    12:00 +19°C° 0 mm 6 mps 734 mmHg 56%
    13:00 +19°C° 0 mm 6 mps 734 mmHg 57%
    14:00 +19°C° 0.1 mm 6 mps 734 mmHg 60%
    15:00 +17°C° 0.1 mm 6 mps 734 mmHg 62%
    16:00 +17°C° 0.1 mm 7 mps 733 mmHg 65%
    17:00 +16°C° 0.1 mm 6 mps 734 mmHg 68%
    18:00 +16°C° 0.1 mm 6 mps 734 mmHg 72%
    19:00 +15°C° 0.1 mm 6 mps 734 mmHg 75%
    20:00 +15°C° 0.4 mm 5 mps 735 mmHg 78%
    21:00 +14°C° 0.4 mm 5 mps 735 mmHg 81%
    22:00 +14°C° 0.4 mm 5 mps 735 mmHg 83%
    23:00 +14°C° 0.9 mm 5 mps 734 mmHg 85%
    Show more